Время (UTC), дата Ветер
(°,м/с) 
Видим.   Явления Облачность Т
(°С)
Тd
(°С)
f(%) Тe
(°С)
Pmin
(гПа)
dP
(гПа)
Po
(мм)
O2
(г/м3)
Тmin Tmax R s Состояние
почвы
00 01.03.10 080 (В) 10 км    ясно 
+0.1 -0.5 96 +1  1015.9  0.2  759  306           
03 01.03.10 070 (В) 10 км    ясно 
-0.8 -0.8 100 1017  760  307           
06 01.03.10 090 (В) 10 км    ясно 
+2 -0.2 85 +1  1017.8  0.9  761  304  -1         
09 01.03.10 140 (ЮВ) 10 км    ясно 
+8.5 +2.5 66 +9  1017.6  -0.1  761  297           
12 01.03.10 210 (ЮЗ) 10 км    3/0 верхняя 
[Ci fib]
+13.8 +5 55 +14  1016.6  -1  760  291           
15 01.03.10 220 (ЮЗ) 10 км    8/0 верхняя 
[Ci fib]
+11.8 +5.3 64 +12  1016.8  0.2  760  293           
18 01.03.10 220 (ЮЗ) 10 км    ясно 
+8.4 +5 79 +9  1017  0.2  760  296    +14.8       
21 01.03.10 тихо ()   10 км    ясно 
+6.1 +4.5 89 +6  1016.1  -0.9  759  299           
00 02.03.10 020 (С) 4000 м  дымка  10/0 средняя, верхняя 
[Ac trans|Cs]
+4.1 +3.4 95 +5  1015.8  -0.4  759  301           
03 02.03.10 тихо ()   4000 м  дымка  10/0 средняя 
[Ac und]
+3.6 +3.1 97 +4  1015.6  -0.2  759  301           
06 02.03.10 100 (В) 4000 м  дымка  10/8 1000 м средняя 
[Sc|Ac und]
+5.9 +4.3 89 +6  1015.3  -0.2  759  299           
09 02.03.10 090 (В) 4000 м  дымка  10/8 1000 м средняя 
[Sc|Ac und]
+8.4 +5.3 81 +8  1015  -0.3  759  296           
12 02.03.10 070 (В) 10 км  слаб. дождь  10/10 1000 м 
[Sc]
+10.2 +5.5 73 +10  1012.8  -2.2  757  293           
15 02.03.10 080 (В) 10 км  в посл. час дождь  10/10 1000 м 
[Sc]
+9.4 +6.8 84 +10  1012.2  -0.6  756  294           
18 02.03.10 030 (СВ) 10 км  в посл. час дождь  10/10 1000 м 
[Sc]
+8.2 +7 92 +8  1011.9  -0.3  756  295    +10.6  0.3     
21 02.03.10 050 (СВ) 10 км    10/10 1000 м 
[Sc]
+7.5 +5 84 +7  1010.6  -1.3  755  295           
00 03.03.10 010 (С) 10 км    10/10 1000 м 
[Sc]
+6.3 +4.2 86 +5  1009.8  -0.8  755  297           
03 03.03.10 010 (С) 10 км    9/6 1000 м средняя 
[Sc|Ac trans]
+5.2 +4 92 +4  1009.9  0.1  755  298           
06 03.03.10 030 (СВ) 10 км    10/10 1000 м 
[Sc]
+4.7 +2.7 87 +4  1010.3  0.3  755  299  +4.7    0.3     
09 03.03.10 020 (С) 4000 м  слаб. ливневой дождь  10/8 1000 м кучево-дожд., средняя 
[Cb cap|Ac und]
+5.4 +3.7 89 +4  1010.4  0.2  755  298           
12 03.03.10 030 (СВ) 10 км  {ливн. осадки}  10/10 1000 м 
[Sc]
+5.6 +4 89 +5  1010.5  0.1  755  298           
15 03.03.10 010 (С) 4000 м  слаб. дождь  10/10 1000 м 
[Sc]
+5.4 +3.5 88 +5  1011.6  1.1  756  298           
18 03.03.10 010 (С) 4000 м  слаб. дождь  10/10 600 м 
[Ns]
+5.1 +4.2 94 +5  1013.2  1.6  757  299    +6  0.0     
21 03.03.10 350 (С) 4000 м  слаб. дождь  10/10 300 м 
[Frnb|Ns]
+3.1 +2.1 93 +2  1014.9  1.6  758  302           
00 04.03.10 300 (СЗ) 10 км  в посл. час дождь{снег}  10/10 300 м 
[Frnb|Ns]
+1.1 +0.3 94 1016.1  1.2  759  305           
03 04.03.10 280 (З) 4000 м  дымка  10/10 300 м 
[St|Ns]
+2 +1.2 94 +1  1018.1  761  304           
06 04.03.10 300 (СЗ) 10 км    8/8 600 м 
[St]
+2 +0.7 91 +1  1020.2  2.1  762  305  +1       
09 04.03.10 310 (СЗ) 10 км    6/6 1000 м 
[Cu med, cong]
+5.6 -2.8 55 +5  1020.6  0.4  763  301           
12 04.03.10 240 (ЮЗ) 10 км    3/3 1000 м 
[Sc]
+7.6 -3.8 44 +9  1019.2  -1.4  762  299           
15 04.03.10 210 (ЮЗ) 10 км    6/0 средняя, верхняя 
[Ac trans|Ci fib]
+7.2 -5 41 +8  1018.5  -0.6  761  299           
18 04.03.10 тихо ()   10 км    8/0 верхняя 
[Ci fib]
+4.2 -1.3 67 +4  1017.6  -1  760  302    +8.5       
21 04.03.10 110 (В) 10 км    8/0 верхняя 
[Ci fib]
+2.4 -0.9 79 +2  1015  -2.6  758  303           
00 05.03.10 160 (Ю) 10 км    10/0 средняя 
[Ac trans]
+1.8 +0.5 91 +3  1012.5  -2.5  757  303           
03 05.03.10 060 (СВ) 10 км    10/0 средняя, верхняя 
[Ac trans|Ci fib]
+2.2 -0.8 81 +2  1010.4  -2.1  755  302           
06 05.03.10 070 (В) 10 км    9/8 1000 м средняя 
[Sc|Ac und]
+3.6 -2 67 +2  1010.5  0.1  755  301  +1.8         
09 05.03.10 110 (В) 10 км    10/5 1000 м средняя 
[Sc|Ac und]
+5.4 -0.4 66 +4  1009.2  -1.2  754  298           
12 05.03.10 130 (ЮВ) 10 км    10/8 1000 м средняя 
[Sc|Ac und]
+6.7 +0.3 64 +5  1007.5  -1.7  753  296           
15 05.03.10 100 (В) 10 км  слаб. дождь  10/10 1000 м 
[Sc]
+6.6 +0.5 65 +5  1007.8  0.3  753  296           
18 05.03.10 070 (В) 4000 м  слаб. дождь  10/10 600 м 
[Ns]
+4 +2.5 90 +2  1008.6  0.7  754  299    +7.5  0.0     
21 05.03.10 100 (В) 10 км  слаб. дождь  10/10 600 м 
[Frnb|Ns]
+3.4 +2.4 93 +2  1008.4  -0.2  754  300           
00 06.03.10 100 (В) 4000 м  дымка{дождь}  10/10 300 м 
[Frnb|Ns]
+2.9 +2.1 94 +2  1007.5  -0.9  753  300           
03 06.03.10 110 (В) 10 км  {дождь}  10/10 300 м 
[Frnb]
+3.2 +1.9 91 +3  1006.6  -0.9  752  299           
06 06.03.10 130 (ЮВ) 10 км    10/10 600 м кучево-дожд. 
[Cb cap]
+4.5 +2.5 87 +3  1006.5  -0.1  752  298         
09 06.03.10 050 (СВ) 10 км    10/10 600 м 
[Sc]
+6.4 +4.1 85 +7  1005.3  -1.1  751  295           
12 06.03.10 210 (ЮЗ) 4000 м  слаб. ливневой дождь  10/10 600 м кучево-дожд. 
[Cb cap]
+7.8 +6.5 91 +8  1005.1  -0.2  751  293           
15 06.03.10 230 (ЮЗ) 10 км  {ливн. осадки}  10/8 600 м кучево-дожд., средняя, верхняя 
[Cb cap|Ac trans|Cc]
+8.2 +5.9 85 +8  1005.8  0.7  752  293           
18 06.03.10 200 (Ю) 10 км  {ливн. осадки}  10/3 1500 м средняя 
[Sc|Ac und]
+7.5 +5.8 89 +7  1005.8  752  294    +8.4     
21 06.03.10 250 (З) 10 км    6/6 1000 м 
[Sc]
+6.9 +3.9 81 +7  1006.4  0.6  752  295           
00 07.03.10 210 (ЮЗ) 10 км    9/9 1000 м 
[Sc]
+6.3 +3.2 81 +7  1006.7  0.3  752  296           
03 07.03.10 230 (ЮЗ) 4000 м  слаб. ливневой дождь  10/10 600 м кучево-дожд. 
[Cb cap]
+5.5 +3.8 89 +3  1008.5  1.8  754  297           
06 07.03.10 210 (ЮЗ) 10 км  в посл. час ливневой дождь  9/9 300 м кучево-дожд. 
[Cb cap]
+3.9 +2.1 88 +3  1012.2  3.6  756  300  +2.8    0.8     
09 07.03.10 230 (ЮЗ) 10 км  в посл. час ливневой дождь  9/9 300 м кучево-дожд. 
[Cb cap]
+4.4 +2.4 87 +2  1015  2.8  758  300           
12 07.03.10 240 (ЮЗ) 4000 м  слаб. ливневой дождь  10/10 300 м кучево-дожд. 
[Cb cap]
+4.4 +1.3 80 +2  1018.9  3.9  761  302           
15 07.03.10 320 (СЗ) 4000 м  слаб. ливневой дождь  10/10 300 м кучево-дожд. 
[Cb cap]
+1.4 -0.1 90 -1  1021.8  2.9  764  306           
18 07.03.10 300 (СЗ) 10 км  слаб. ливневой дождь  10/10 300 м кучево-дожд. 
[Cb cap]
+2.9 -0.4 79 +2  1024.5  2.7  766  305    +5.5     
21 07.03.10 280 (З) 4000 м  слаб. ливневой снег  10/10 300 м кучево-дожд. 
[Cb cap]
+1.4 -1.1 83 1025.2  0.7  766  307           
00 08.03.10 270 (З) 10 км  в посл. час ливневой снег  10/10 300 м кучево-дожд. 
[Cb cap]
+0.6 -2 83 -1  1026  0.8  767  309           
03 08.03.10 320 (СЗ) 10 км    10/10 600 м 
[Sc]
+0.1 -1.7 88 -1  1027.6  1.6  768  310           
06 08.03.10 320 (СЗ) 10 км    10/6 1000 м средняя 
[Sc|Ac und]
+0 -3.4 78 -2  1028.2  0.5  768  310  -0.4    0.6     
09 08.03.10 330 (СЗ) 10 км    10/5 600 м средняя, верхняя 
[Sc|Ac trans|Ci fib]
+1.3 -2.9 73 +1  1027.9  -0.2  768  308           
12 08.03.10 040 (СВ) 10 км    10/6 1000 м средняя 
[Sc|Ac und]
+1.8 -2.9 71 +1  1026.5  -1.4  767  307           
15 08.03.10 040 (СВ) 10 км    10/8 1000 м средняя 
[Sc|Ac und]
+1.3 -2.9 73 +1  1024.8  -1.7  766  307           
18 08.03.10 060 (СВ) 10 км    10/6 600 м средняя 
[Sc|Ac und]
+1 -1.6 83 1023.1  -1.7  765  307    +1.3       
21 08.03.10 070 (В) 4000 м  слаб. снег  10/10 1000 м 
[Sc]
+0.5 -1.5 86 1022.1  -1  764  307           
00 09.03.10 050 (СВ) 1000 м  сильн. снег  10/10 300 м 
[Ns]
-0.5 -0.8 98 -1  1021  -1.2  763  308           
03 09.03.10 040 (СВ) 0500 м  сильн. снег  10/10 300 м 
[Ns]
-1 -1.4 97 -4  1019.7  -1.3  762  308           
06 09.03.10 060 (СВ) 4000 м  ледяной дождь (гололёд){снег} [диам. отлож. мокр. снега 2 мм]  10/10 300 м 
[Ns]
-0.3 -1.5 91 -2  1019.3  -0.4  762  307  -1      равномерный
мокрый или
старый снег
100% 
09 09.03.10 090 (В) 4000 м  слаб. дождь{снег} [диам. гололёда 1 мм]  10/10 600 м 
[Ns]
+0.3 -0.5 94 -3  1016.8  -2.4  760  306           
12 09.03.10 070 (В) 4000 м  слаб. дождь{снег}  10/10 600 м 
[Ns]
+0.5 -0.9 90 -2  1014.4  -2.4  758  305           
15 09.03.10 080 (В) 4000 м  слаб. дождь  10/10 600 м 
[Ns]
+0.5 -0.6 92 -2  1012.6  -1.8  757  304           
18 09.03.10 050 (СВ) 4000 м  слаб. дождь  10/10 600 м 
[Ns]
+0.8 +0.3 96 1010.8  -1.8  755  303    +0.7  12     
21 09.03.10 040 (СВ) 10 км  в посл. час дождь  10/10 600 м 
[Ns]
+0.4 -0.2 96 -2  1011.2  0.4  756  304           
00 10.03.10 040 (СВ) 4000 м  слаб. дождь  10/10 300 м 
[Ns]
+0.2 -0.1 98 -2  1011.2  756  304           
03 10.03.10 010 (С) 4000 м  слаб. дождь  10/10 300 м 
[Ns]
+0.1 -0.5 96 -1  1014.4  3.2  758  305        равномерный
мокрый или
старый снег
100% 
06 10.03.10 350 (С) 4000 м  слаб. снег{дождь} [диам. гололёда 2 мм]  10/10 200 м 
[Frnb|Ns]
-1 -1.3 98 -2  1020.7  6.2  763  309  -1    11  равномерный
мокрый или
старый снег
100% 
09 10.03.10 350 (С) 4000 м  слаб. крупа{ливн. осадки, снег} [диам. гололёда 1 мм]  10/10 300 м кучево-дожд. 
[Cb cap]
-2.9 -4.9 86 -5  1026.1  5.4  767  313           
12 10.03.10 340 (С) 10 км  {ливн. осадки, снег}  10/10 300 м кучево-дожд. 
[Cb cap]
-2.2 -5.2 80 -3  1028.9  2.8  769  313           
15 10.03.10 340 (С) 10 км    10/8 600 м средняя 
[Sc|As op]
-2.4 -5.1 82 -3  1031.4  2.5  771  314           
18 10.03.10 030 (СВ) 10 км    10/10 600 м 
[St]
-3 -5.4 83 -4  1032.6  1.2  772  315    +0.2     
21 10.03.10 060 (СВ) 10 км    10/10 600 м 
[St]
-3.8 -5.3 89 -5  1033.1  0.5  772  316           
00 11.03.10 070 (В) 10 км    9/6 300 м верхняя 
[Sc|Ci fib]
-4.6 -5.9 91 -6  1032.1  -1  771  317           
03 11.03.10 060 (СВ) 10 км    10/10 600 м 
[Sc]
-5.6 -6.7 92 -7  1031.1  -1.1  770  318        равномерный
сухой снег
100% 
06 11.03.10 080 (В) 10 км    10/0 верхняя 
[Ci fib]
-4.7 -6.7 86 -6  1029.2  -1.8  769  316  -6.6      равномерный
сухой снег
100% 
09 11.03.10 060 (СВ) 10 км    10/0 средняя, верхняя 
[Ac trans|Cs]
-1.2 -5.2 74 -4  1026.1  -3.1  767  311           
12 11.03.10 040 (СВ) 10 км    10/0 средняя, верхняя 
[Ac trans|Ci fib]
+1.2 -3.3 72 1022.3  -3.7  764  307           
15 11.03.10 060 (СВ) 10 км    10/3 1000 м средняя, верхняя 
[Sc|Ac trans|Ci fib]
+1.3 -1.6 81 +1  1017.9  -4.4  761  305           
18 11.03.10 080 (В) 10 км    10/8 1000 м средняя 
[Sc|Ac und]
+1.2 -1.1 85 +1  1014.9  -3  758  304    +1.4       
21 11.03.10 090 (В) 10 км    10/8 1000 м средняя 
[Sc|Ac und]
+1.6 -0.3 87 +2  1012.1  -2.8  756  303           
00 12.03.10 010 (С) 10 км    10/10 1000 м 
[Sc]
+1.3 -0.7 86 +1  1010  -2.1  755  303           
03 12.03.10 090 (В) 10 км  в посл. час дождь  10/10 1000 м 
[Sc]
+1.6 +0.2 91 +1  1009.6  -0.4  754  302        равномерный
сухой снег
100% 
06 12.03.10 270 (З) 10 км  в посл. час дождь  9/8 1000 м средняя 
[Sc|Ac und]
+3.8 +2.6 92 +5  1010.4  0.8  755  300  +1    0.1  мокрый или
старый снег
50-90% 
09 12.03.10 280 (З) 10 км    10/10 1000 м 
[Sc]
+6.1 +1.3 71 +5  1011.3  756  298           
12 12.03.10 220 (ЮЗ) 10 км    10/10 1000 м кучево-дожд. 
[Cb cap]
+9.4 +5.5 77 +9  1011.4  0.1  756  294           
15 12.03.10 220 (ЮЗ) 10 км    9/8 600 м кучево-дожд., средняя 
[Cb cap|Ac und]
+9.1 +5.1 76 +9  1012.5  1.1  757  294           
18 12.03.10 300 (СЗ) 10 км    8/8 1000 м 
[Sc]
+7.8 +4.6 80 +7  1012.7  0.2  757  296    +10  0.0     
21 12.03.10 310 (СЗ) 10 км    10/10 600 м 
[Sc]
+4.5 +3.5 93 +5  1012.4  -0.4  757  299           
00 13.03.10 240 (ЮЗ) 10 км    10/10 600 м 
[Sc]
+4.4 +3.7 95 +5  1012.2  -0.2  756  299           
03 13.03.10 180 (Ю) 10 км    10/10 300 м 
[St]
+6.2 +4.6 90 +7  1011.1  -1  756  297           
06 13.03.10 230 (ЮЗ) 4000 м  слаб. дождь  10/10 600 м 
[Sc]
+6.9 +5.3 90 +7  1011.7  0.6  756  296  +4.1         
09 13.03.10 230 (ЮЗ) 10 км  {дождь}  10/8 300 м кучево-дожд., средняя 
[Cb cap|Ac trans]
+9.9 +5.8 76 +9  1011.5  -0.2  756  293           
12 13.03.10 240 (ЮЗ) 10 км  {дождь}  10/6 1000 м кучево-дожд., верхняя 
[Cb cap|Ci fib]
+11.5 +1.9 52 +10  1011.6  0.1  756  292           
15 13.03.10 290 (З) 10 км    10/10 1000 м кучево-дожд. 
[Cb cap]
+6.6 +4.3 85 +5  1013.4  1.8  757  297           
18 13.03.10 180 (Ю) 10 км    9/9 1000 м кучево-дожд. 
[Cb cap]
+5.9 +3.3 83 +7  1014  0.6  758  298    +12.1  0.6     
21 13.03.10 230 (ЮЗ) 10 км    9/9 1000 м кучево-дожд. 
[Cb cap]
+6.1 +1.9 74 +6  1014.1  0.1  758  298           
00 14.03.10 320 (СЗ) 10 км    10/10 1000 м 
[Sc]
+3.7 -0.6 73 +3  1014.2  758  301           
03 14.03.10 160 (Ю) 10 км    10/10 1000 м 
[Sc]
+2.6 +1.6 93 +3  1014.3  0.1  758  302           
06 14.03.10 150 (ЮВ) 4000 м  слаб. ливневой дождь  10/10 600 м кучево-дожд. 
[Cb cap]
+3.3 +1.8 90 +4  1014.2  -0.1  758  301  +2.5         
09 14.03.10 240 (ЮЗ) 4000 м  слаб. ливневой дождь  10/10 600 м кучево-дожд. 
[Cb cap]
+5.2 +3 86 +4  1013.2  -0.9  757  299           
12 14.03.10 270 (З) 10 км  слаб. ливневой дождь  10/10 600 м кучево-дожд. 
[Cb cap]
+5.9 +3 82 +5  1012.7  -0.5  757  298           
15 14.03.10 230 (ЮЗ) 4000 м  слаб. ливневой дождь  10/10 600 м кучево-дожд. 
[Cb cap]
+4.5 +3 90 +5  1013.4  0.6  757  300           
18 14.03.10 150 (ЮВ) 4000 м  слаб. ливневой дождь  10/10 600 м кучево-дожд. 
[Cb cap]
+4.4 +3.7 95 +4  1014.1  0.7  758  300    +6.1     
21 14.03.10 тихо ()   4000 м  дымка{ливн. осадки}  9/0 средняя 
[Ac trans]
+2.7 +2.4 98 +3  1013.6  -0.5  757  302           
00 15.03.10 180 (Ю) 4000 м  дымка{ливн. осадки}  10/6 600 м средняя 
[Sc|Ac und]
+3.4 +2.9 97 +3  1013.2  -0.4  757  301           
03 15.03.10 тихо ()   4000 м  дымка  10/3 1000 м средняя 
[Sc|Ac und]
+2.5 +2 96 +3  1012.7  -0.5  757  302           
06 15.03.10 070 (В) 4000 м  дымка  10/0 верхняя 
[Cs]
+4.2 +2.5 89 +5  1012.2  -0.5  756  300  +2    0.4     
09 15.03.10 090 (В) 10 км    10/0 средняя 
[As op]
+7.7 -0.2 57 +8  1011.1  -1  756  296           
12 15.03.10 050 (СВ) 10 км    9/8 1000 м кучево-дожд., средняя 
[Cb cap|Ac trans]
+8.4 +1.1 60 +8  1009.1  -2  754  295           
15 15.03.10 090 (В) 10 км    9/8 1000 м кучево-дожд., средняя 
[Cb cap|Ac trans]
+7.9 +0.9 61 +8  1008.7  -0.4  754  295           
18 15.03.10 тихо ()   10 км    8/5 1000 м средняя, верхняя 
[Sc|Ac trans|Ci fib]
+5.7 +2.8 82 +6  1008.5  -0.2  754  297    +8.6       
21 15.03.10 260 (З) 10 км    8/5 1000 м средняя 
[Sc|Ac trans]
+5.3 +1.8 78 +6  1008.6  0.1  754  298           
00 16.03.10 210 (ЮЗ) 10 км    ясно 
+4.4 +1.9 84 +4  1008.7  754  299           
03 16.03.10 220 (ЮЗ) 10 км    9/5 1000 м средняя 
[Sc|Ac trans]
+4.2 +0.8 79 +3  1008.8  0.1  754  299           
06 16.03.10 220 (ЮЗ) 4000 м  слаб. ливневой дождь  10/6 1000 м кучево-дожд., средняя 
[Cb cap|Ac und]
+5 +2.3 83 +4  1009.1  0.4  754  298  +2.8         
09 16.03.10 260 (З) 2000 м  ливневой снег  10/10 300 м кучево-дожд. 
[Cb cap]
+1.4 +0 90 -1  1012.3  3.1  756  303           
12 16.03.10 310 (СЗ) 10 км  {ливн. осадки}  10/8 600 м кучево-дожд. 
[Cb cap]
+2 -3.7 66 -1  1016.1  3.8  759  304           
15 16.03.10 300 (СЗ) 10 км    3/3 1000 м 
[Sc]
+2.1 -8 47 +1  1020.3  4.2  762  306           
18 16.03.10 240 (ЮЗ) 10 км    ясно 
+0 -6.3 63 -1  1023.7  3.3  765  309    +7.2     
21 16.03.10 210 (ЮЗ) 10 км    ясно 
-1.6 -5.7 74 -3  1024.6  0.9  766  311           
00 17.03.10 150 (ЮВ) 10 км    ясно 
-1.5 -7.1 66 -3  1023.6  -1  765  311           
03 17.03.10 180 (Ю) 10 км    3/0 средняя 
[Ac trans]
-0.5 -6.1 66 -2  1020.6  -3  763  309           
06 17.03.10 220 (ЮЗ) 8-18{18}  10 км    3/0 средняя 
[Ac trans]
+5 -4.4 51 +2  1018.9  -1.6  761  302  -2.5         
09 17.03.10 210 (ЮЗ) 9-19{24}  10 км    10/4 1000 м средняя 
[Sc|Ac und]
+5.6 -2.8 55 +2  1017.5  -1.3  760  301           
12 17.03.10 320 (СЗ) 3{19}  0500 м  ливневой снег [диам. отлож. мокр. снега 15 мм]  10/10 200 м кучево-дожд. 
[Cb cap]
+0.5 +0.2 98 -1  1019.9  2.3  762  307           
15 17.03.10 280 (З) 10 км  в посл. час ливневой снег [диам. отлож. мокр. снега 33 мм]  10/5 600 м кучево-дожд., средняя 
[Cb cap|Ac und]
-0.2 -0.8 96 -2  1022.3  2.3  764  308           
18 17.03.10 280 (З) 10 км  {ливн. осадки} [диам. отлож. мокр. снега 33 мм]  10/8 1000 м верхняя 
[Sc|Cc]
-1.1 -3 87 -2  1025.6  3.3  766  310    +7  18     
21 17.03.10 280 (З) 10 км  [диам. отлож. мокр. снега 33 мм]  10/0 верхняя 
[Ci fib]
-2.8 -4.8 86 -4  1027.9  2.3  768  313           
00 18.03.10 210 (ЮЗ) 10 км  [диам. отлож. мокр. снега 33 мм]  ясно 
-5 -6 93 -5  1029.3  1.3  769  316           
03 18.03.10 280 (З) 10 км  [диам. отлож. мокр. снега 33 мм]  10/0 верхняя 
[Ci fib]
-2.8   1027.9  2.3  768             
06 18.03.10 210 (ЮЗ) 10 км  [диам. отлож. мокр. снега 20 мм]  ясно 
-1.8 -4.2 84 -3  1030  0.6  770  313  -5.2      10  равномерный
мокрый или
старый снег
100% 
09 18.03.10 230 (ЮЗ) 10 км    3/0 средняя, верхняя 
[Ac trans|Ci]
+2.8 -3 66 +1  1030.1  0.1  770  307           
12 18.03.10 210 (ЮЗ) 10 км    3/3 1500 м средняя 
[Cu med, cong|Ac trans]
+4.8 -2.9 57 +4  1029  -1.1  769  305           
15 18.03.10 230 (ЮЗ) 10 км    10/6 1000 м кучево-дожд., средняя, верхняя 
[Cb cap|Ac trans|Ci]
+4 -1.5 67 +2  1027.8  -1.1  768  305           
18 18.03.10 210 (ЮЗ) 4000 м  слаб. ливневой дождь со снегом [диам. отлож. мокр. снега 1 мм]  10/10 600 м кучево-дожд. 
[Cb cap]
+1.1 +0.6 97 1027.3  -0.5  768  308    +5.3       
21 18.03.10 250 (З) 10 км  в посл. час ливневой снег  10/10 600 м кучево-дожд. 
[Cb cap]
+1.4 +0.9 96 1027.2  -0.1  768  308           
00 19.03.10 290 (З) 10 км  {снег}  9/9 600 м кучево-дожд. 
[Cb cap]
+2.2 +0.9 91 +2  1028.2  768  307           
03 19.03.10 300 (СЗ) 10 км    8/6 600 м средняя 
[Sc|Ac trans]
+1 +0.2 94 1030.6  2.3  770  309        равномерный
мокрый или
старый снег
100% 
06 19.03.10 030 (СВ) 10 км    8/5 1000 м кучево-дожд., средняя 
[Cb cap|Ac trans]
+0.8 -1.2 86 +1  1033.3  2.7  772  310  +0.3       
09 19.03.10 040 (СВ) 10 км    8/6 1000 м кучево-дожд., средняя 
[Cb cap|Ac trans]
+2.3 -1.4 76 +2  1035  1.7  773  309           
12 19.03.10 100 (В) 10 км    9/8 1000 м кучево-дожд., средняя 
[Cb cap|Ac trans]
+3.8 +0.4 79 +3  1034.7  -0.3  773  307           
15 19.03.10 120 (ЮВ) 10 км    6/4 1000 м кучево-дожд., средняя 
[Cb cap|Ac trans]
+3.8 +0.4 79 +3  1034.3  -0.4  773  307           
18 19.03.10 230 (ЮЗ) 10 км    3/3 1000 м 
[Sc]
+2.7 +1.4 91 +3  1034.8  0.5  773  308    +4.1       
21 19.03.10 220 (ЮЗ) 10 км    8/8 600 м 
[Sc]
+3.5 +1.7 88 +3  1034.3  -0.5  773  307           
00 20.03.10 220 (ЮЗ) 10 км    8/1 600 м верхняя 
[Sc|Ci fib]
+3 +0.9 86 +2  1033.7  -0.6  772  308           
03 20.03.10 240 (ЮЗ) 10 км    3/0 средняя 
[Ac trans]
+2.9 +1.6 91 +4  1033.4  -0.3  772  308           
06 20.03.10 240 (ЮЗ) 10 км    ясно 
+6.8 +2.4 74 +5  1033.1  -0.2  772  303  +2         
09 20.03.10 260 (З) 10 км    8/6 1000 м верхняя 
[Cu med, cong|Ci fib]
+10.5 +1.5 54 +10  1032.7  -0.3  772  299           
12 20.03.10 210 (ЮЗ) 10 км    10/3 1000 м верхняя 
[Sc diur, vesp|Ci fib]
+10.8 +2.5 56 +10  1031.2  -1.5  771  298           
15 20.03.10 230 (ЮЗ) 10 км    6/4 1000 м верхняя 
[Sc|Ci fib]
+9.8 +1.7 57 +9  1030.5  -0.7  770  299           
18 20.03.10 220 (ЮЗ) 10 км    ясно 
+5.7 +0.3 68 +5  1030.4  -0.2  770  304    +11.9       
21 20.03.10 220 (ЮЗ) 10 км    ясно 
+4.6 +0.4 74 +3  1029.1  -1.4  769  305           
00 21.03.10 230 (ЮЗ) 10 км    ясно 
+4.6 -1.4 65 +4  1028.2  -0.8  768  305           
03 21.03.10 190 (Ю) 10 км    1/0 верхняя 
[Ci fib]
+3.4 -2 68 +4  1027.2  -1  768  306           
06 21.03.10 210 (ЮЗ) 10 км    10/0 средняя, верхняя 
[Ac trans|Ci fib]
+7.8 -1.7 51 +7  1027.1  -0.1  768  301  +3.2         
09 21.03.10 220 (ЮЗ) 10 км    10/0 верхняя 
[Ci fib]
+12.5 -2.2 36 +11  1026.1  -0.9  767  296           
12 21.03.10 230 (ЮЗ) 10 км    10/0 верхняя 
[Ci fib]
+14.2 -2.7 31 +14  1024.6  -1.5  766  294           
15 21.03.10 220 (ЮЗ) 10 км    10/0 средняя 
[Ac trans]
+11.4 -5 31 +10  1024.2  -0.4  765  297           
18 21.03.10 230 (ЮЗ) 10 км    10/0 средняя 
[Ac trans]
+10 -3 40 +10  1023.4  -0.8  765  298    +14.5       
21 21.03.10 000 (С) 98  0500 м    10/10 100 м 
[Ac trans]
-4.1   1021.8  -1.7  764             
00 22.03.10 210 (ЮЗ) 10 км    10/5 1000 м средняя 
[Sc|Ac trans]
+10.1 -9.8 24 +9  1020.1  -1.7  762  297           
03 22.03.10 240 (ЮЗ) 10 км    10/9 1000 м средняя 
[Sc|Ac trans]
+10.4 -9.8 23 +9  1019.7  -0.3  762  297           
06 22.03.10 230 (ЮЗ) 10 км    9/6 1000 м средняя 
[Sc|Ac und]
+12.3 -7.1 25 +11  1019.3  -0.4  762  294  +9.8         
09 22.03.10 220 (ЮЗ) 10 км    10/10 1000 м 
[Sc]
+14.8 -6.4 23 +14  1018.7  -0.6  761  292           
12 22.03.10 230 (ЮЗ) 10 км    9/6 1000 м средняя, верхняя 
[Sc|Ac und|Cc]
+16.4 -10.3 15 +16  1017.7  -0.9  761  290           
15 22.03.10 220 (ЮЗ) 10 км    10/8 1000 м средняя 
[Sc|Ac und]
+14.3 -1.4 34 +14  1017.6  -0.2  761  291           
18 22.03.10 220 (ЮЗ) 10 км  {дождь}  9/5 1500 м средняя 
[Sc|Ac trans]
+12.8 +3.8 54 +12  1017.4  -0.2  760  292    +17.4       
21 22.03.10 220 (ЮЗ) 10 км    10/10 1500 м 
[Sc]
+13.2 +3.4 51 +13  1017.1  -0.3  760  292           
00 23.03.10 260 (З) 10 км  {ливн. осадки}  10/10 1000 м кучево-дожд. 
[Cb cap]
+11.9 +5.9 67 +11  1017.9  0.8  761  293           
03 23.03.10 310 (СЗ) 4000 м  слаб. ливневой дождь  10/10 1000 м кучево-дожд. 
[Cb cap]
+10.2 +8.8 91 +10  1019.3  1.4  762  294           
06 23.03.10 320 (СЗ) 4000 м  дымка{ливн. осадки}  9/8 600 м кучево-дожд. 
[Cb cap]
+9 +7.3 89 +9  1022.1  2.7  764  297  +8.8       
09 23.03.10 340 (С) 10 км    8/6 1000 м кучево-дожд., средняя 
[Cb cap|Ac trans]
+10.2 +3.8 64 +10  1023.9  1.9  765  297           
12 23.03.10 280 (З) 10 км    5/5 1000 м 
+11.2 +3.8 60 +11  1024.3  0.4  766  296           
15 23.03.10 310 (СЗ) 10 км    ясно 
+11.9 +1.9 50 +13  1024.3  766  295           
18 23.03.10 010 (С) 10 км    ясно 
+7.5 +1.9 68 +8  1025.4  766  300    +12.8     
21 23.03.10 040 (СВ) 10 км    ясно 
+5.1 +0.7 73 +5  1024.9  -0.5  766  303           
00 24.03.10 040 (СВ) 10 км  дымка  ясно 
+2.6 +0.2 84 +3  1024.2  -0.7  765  305           
03 24.03.10 080 (В) 10 км  дымка  3/0 верхняя 
[Ci fib]
+1.6 +0.2 91 +2  1023  -1.2  764  306           
06 24.03.10 110 (В) 4000 м  дымка  3/0 верхняя 
[Ci fib]
+7.2 +3.8 79 +7  1021.8  -1.2  764  299  +1.4         
09 24.03.10 150 (ЮВ) 10 км    10/0 верхняя 
[Cc]
+14.8 +4.3 49 +15  1019.3  -2.3  762  291           
12 24.03.10 050 (СВ) 10 км    10/0 средняя, верхняя 
[Ac trans|Ci fib]
+19 -0.5 27 +20  1017.1  -2.2  760  286           
15 24.03.10 270 (З) 10 км    9/0 средняя 
[Ac trans]
+18.4 -0.9 27 +20  1015.8  -1.3  759  287           
18 24.03.10 330 (СЗ) 10 км    9/0 средняя 
[Ac trans]
+13.4 +4.8 56 +13  1017.3  1.4  760  291    +20.5       
21 24.03.10 310 (СЗ) 10 км    ясно 
+9.7   1018.5  1.2  761             
00 25.03.10 320 (СЗ) 10 км    ясно 
+6.6   1019.8  1.2  762             
03 25.03.10 330 (СЗ) 10 км    ясно 
+4.6   1021.8  764             
06 25.03.10 040 (СВ) 10 км    ясно 
+7 +2.5 73 +6  1023.3  1.5  765  300  +4.2         
09 25.03.10 040 (СВ) 10 км    3/0 верхняя 
[Ci fib]
+12.2 +2.3 51 +12  1023.3  0.1  765  295           
12 25.03.10 040 (СВ) 10 км    3/0 верхняя 
[Ci fib]
+14.7 -0.2 36 +15  1022.4  -0.9  764  292           
15 25.03.10 040 (СВ) 10 км    3/0 верхняя 
[Ci fib]
+14.2 -1.9 33 +14  1022.4  764  293           
18 25.03.10 030 (СВ) 10 км    ясно 
+9.8 -1.9 44 +10  1024.2  1.7  765  298    +15.8       
21 25.03.10 050 (СВ) 10 км    ясно 
+6.6 +0.5 65 +6  1025.6  1.4  766  301           
00 26.03.10 060 (СВ) 10 км    ясно 
+4.5 +0.9 77 +3  1025.9  0.3  767  304           
03 26.03.10 060 (СВ) 10 км    ясно 
+3.6 +0.4 80 +2  1026.8  0.9  767  305           
06 26.03.10 070 (В) 10 км    ясно 
+6.4 +0.5 66 +5  1027.7  0.9  768  302  +3.6         
09 26.03.10 060 (СВ) 10 км    1/1 600 м 
[Cu hum]
+10.4 +1.1 52 +9  1027.5  -0.1  768  298           
12 26.03.10 090 (В) 10 км    3/0 верхняя 
[Ci fib]
+12.2 +1.1 47 +11  1026.3  -1.2  767  296           
15 26.03.10 080 (В) 10 км    ясно 
+11.4 +0.2 46 +10  1025.3  -1  766  296           
18 26.03.10 110 (В) 10 км    ясно 
+8 -0.2 56 +6  1025.7  0.3  767  300    +12.5       
21 26.03.10 090 (В) 10 км    ясно 
+6 -0.9 61 +4  1024.7  -1  766  302           
00 27.03.10 070 (В) 10 км    ясно 
+3.7 -1.6 68 +2  1023.3  -1.4  765  304           
03 27.03.10 090 (В) 10 км    6/0 верхняя 
[Ci fib]
+3.6 -3 62 +2  1022.5  -0.8  759  302           
06 27.03.10 080 (В) 10 км    5/0 верхняя 
[Ci fib]
+5.5 -5.2 46 +4  1022.1  -0.4  764  302  +2.9         
09 27.03.10 120 (ЮВ) 10 км    8/0 верхняя 
[Ci fib]
+10.6 -0.2 47 +10  1020.7  -1.3  763  296           
12 27.03.10 120 (ЮВ) 10 км    3/0 верхняя 
[Ci fib]
+14.8 +1.3 40 +15  1018.5  -2.1  761  291           
15 27.03.10 060 (СВ) 10 км    5/0 верхняя 
[Ci fib]
+12.3 +0.9 46 +12  1017.6  -1  761  293           
18 27.03.10 тихо ()   10 км    ясно 
+7.3 +0.9 64 +7  1016.8  -0.8  760  298    +16       
21 27.03.10 030 (СВ) 10 км    ясно 
+5.4 +0.8 72 +6  1015.4  -1.4  759  300           
00 28.03.10 010 (С) 10 км    ясно 
+3.6 +1.3 85 +4  1013.9  -1.6  758  301           
03 28.03.10 070 (В) 10 км    1/0 верхняя 
[Ci fib]
+1.4 +0.3 92 +2  1013.1  -0.8  757  303           
06 28.03.10 000 (С) 56  <0100 м    1/1 <0100 м 
+1.9   1012.7  -0.3  757    +1.2         
09 28.03.10 350 (С) 10 км    ясно 
+13.2 +3 50 +14  1010.7  -2  755  290           
12 28.03.10 050 (СВ) 10 км    ясно 
+16.1 +2.7 41 +16  1008.5  -2.1  754  286           
15 28.03.10 070 (В) 10 км    ясно 
+16 +2.5 40 +16  1007.3  -1.2  753  286           
18 28.03.10 060 (СВ) 10 км    ясно 
+11.4 +3.8 59 +13  1007.1  -0.2  753  291    +17.4       
21 28.03.10 060 (СВ) 10 км    ясно 
+9.8 +2.5 60 +11  1005.8  -1.3  752  292           
00 29.03.10 060 (СВ) 10 км    ясно 
+3.4 +3.6 100 +4  1005.5  -0.4  751  298           
03 29.03.10 090 (В) 10 км    3/3 1000 м 
[Sc]
+5.7 +4.3 91 +5  1005.6  0.1  752  296           
06 29.03.10 110 (В) 10 км    8/4 1000 м средняя 
[Sc|Ac und]
+9.3 +4.6 72 +9  1006.3  0.7  752  292  +5.5         
09 29.03.10 110 (В) 10 км    6/3 1500 м средняя 
[Sc|Ac und]
+16.4 +5.3 48 +17  1006.6  0.3  752  285           
12 29.03.10 240 (ЮЗ) 10 км  слаб. ливневой дождь  10/10 600 м кучево-дожд. 
[Cb cap]
+17.2 +5.6 46 +17  1008.8  2.3  754  285           
15 29.03.10 300 (СЗ) 10 км  {ливн. осадки}  10/10 1000 м кучево-дожд. 
[Cb cap]
+17.5 +6.4 48 +18  1010.1  1.3  755  285           
18 29.03.10 270 (З) 4000 м  слаб. ливневой дождь  10/10 600 м кучево-дожд. 
[Cb cap]
+12.4 +10.9 91 +16  1013.9  3.7  758  290    +20.9  0.0     
21 29.03.10 тихо ()   10 км  слаб. ливневой дождь  10/10 300 м кучево-дожд. 
[Cb cap]
+11.1 +10.2 94 +12  1015.1  1.2  759  292           
00 30.03.10 240 (ЮЗ) 10 км  {ливн. осадки}  9/8 1000 м средняя, верхняя 
[Sc|Ac trans|Ci fib]
+10.4 +9.2 92 +11  1016.1  759  293           
03 30.03.10 тихо ()   1000 м  дымка  10/10 100 м 
[St]
+9.6 +9 96 +10  1017.3  1.2  760  294           
06 30.03.10 100 (В) 1000 м  дымка{туман}  ?/? 200 
[St|Ac trans]
+10.7 +9.7 94 +13  1017.5  0.2  760  293  +9.4       
09 30.03.10 040 (СВ) 10 км    9/8 600 м кучево-дожд., средняя 
[Cb cap|Ac trans]
+13.1 +9.2 77 +14  1018  0.5  761  291           
12 30.03.10 070 (В) 10 км    9/6 1000 м кучево-дожд., средняя 
[Cb cap|Ac trans]
+13.5 +9.5 77 +14  1017.8  -0.2  761  290           
15 30.03.10 120 (ЮВ) 10 км    10/3 1000 м кучево-дожд., средняя, верхняя 
[Cb cap|Ac trans|Ci fib]
+13.4 +9.3 76 +14  1017.8  761  291           
18 30.03.10 080 (В) 10 км    5/3 1000 м верхняя 
[Sc|Ci fib]
+11.3 +9.2 87 +12  1017.9  0.1  761  293    +14       
21 30.03.10 010 (С) 10 км    8/4 1000 м средняя 
[Sc|Ac trans]
+10.6 +8.5 87 +12  1018  0.1  761  294           
00 31.03.10 тихо ()   10 км  дымка  10/4 1000 м верхняя 
[Sc|Ci fib]
+8.5 +7.7 95 +9  1017.9  -0.1  761  296           
03 31.03.10 тихо ()   2000 м  дымка  10/4 1000 м верхняя 
[Sc|Ci fib]
+8.4 +7.6 95 +8  1018.3  0.4  761  296           
06 31.03.10 тихо ()   2000 м  в посл. час туман  10/4 600 м средняя 
[Sc|Ac und]
+9.3 +8.6 95 +9  1018.9  0.6  761  295  +8         
09 31.03.10 330 (СЗ) 10 км    8/8 1000 м 
[Cu med, cong]
+13.4 +8.2 71 +15  1019.3  0.4  762  291           
12 31.03.10 080 (В) 10 км    9/9 1000 м 
[Cu med, cong]
+15.2 +8.1 63 +16  1018.7  -0.5  761  289           
15 31.03.10 140 (ЮВ) 10 км    8/8 1000 м верхняя 
[Sc diur, vesp|Ci fib]
+15 +8 63 +16  1018.1  -0.6  761  289           
18 31.03.10 230 (ЮЗ) 10 км    9/4 1000 м средняя 
[Sc|Ac trans]
+12 +7.3 73 +11  1018.1  -0.1  761  292    +15.8       
21 31.03.10 220 (ЮЗ) 10 км    4/0 средняя 
[Ac trans]
+10.2 +6.8 79 +10  1017.7  -0.4  761  294           
00 01.04.10 230 (ЮЗ) 10 км    3/0 средняя 
[Ac trans]
+9.2 +7.6 90 +9  1016.7  -1  760  295           
03 01.04.10 080 (В) 10 км    3/0 средняя 
[Ac trans]
+6.5 +6.1 97 +7  1016.2  -0.5  759  298           
Время (UTC), дата Ветер
(°,м/с) 
Видим.   Явления Облачность Т
(°С)
Тd
(°С)
f(%) Тe
(°С)
Pmin
(гПа)
dP
(гПа)
Po
(мм)
O2
(г/м3)
Тmin Tmax R s Состояние
почвы